sat.trackr.live / text

‹ back to catalog

GRUS-1C

NORAD 47933 · 2021-022B

PAYLOAD ACTIVE UNKNOWN

§ Identity

Operator
Country
JPN
Launch date
2021-03-22
Launch site
TYMSC
Launch vehicle
Mass (kg)
RCS (m²)

External: N2YO · Heavens-Above · Gunter

§ Orbital elements

Epoch: 2026-05-25T05:24:20.652192Z

Period
96.07 min
Inclination
97.5399°
Eccentricity
0.0015066
Mean motion
14.98934283 rev/d
Perigee alt
559.7 km
Apogee alt
580.7 km
Semi-major
6,948.3 km
B*
1.5667e-4
RAAN
29.0929°
Arg perigee
44.9136°
Mean anomaly
315.3304°
Rev number
28,246

§ Raw data

GRUS-1C1 47933U 21022B   26145.22523903  .00001842  00000+0  15667-3 0  99992 47933  97.5399  29.0929 0015066  44.9136 315.3304 14.98934283282468

JSON: /api/v1/satellites/47933 · /tle

For live sub-satellite position, see the globe view (requires WebGL).

§ Visibility from observer

Set your observer location to see the next 7 days of passes ≥ 10°. The values pass through the URL so the page stays shareable.

No JS? Fill the form by hand. The geolocation button needs JavaScript.

§ Radio — SatNOGS DB

ModeDescriptionDownlinkUplink
FM S-band telemetry 2.276 GHz

1 transmitter · refreshed weekly from db.satnogs.org